START_TIME,STEP,MOV.,M29,t_acc.,H22,t_acc.,H26,t_acc.,H30,t_acc.
1986-01-26 03:00:33.230 ,3,0,0.,24.0,0.,24.0,0.,24.0,0.,24.0
1986-01-26 03:00:57.230 ,2,1,0.,24.0,0.,24.0,0.,24.0,0.,24.0
1986-01-26 03:01:21.230 ,2,0,0.,24.0,0.,24.0,0.,24.0,0.,24.0
1986-01-26 03:01:45.230 ,1,1,0.,24.0,0.,24.0,0.,24.0,0.,24.0
1986-01-26 03:02:09.230 ,1,0,0.,24.0,0.,24.0,0.,24.0,0.,24.0
1986-01-26 03:02:33.230 ,0,1,0.,24.0,0.,24.0,0.,24.0,0.,24.0
1986-01-26 03:02:57.230 ,0,0,0.,24.0,0.,24.0,0.,24.0,0.,24.0
1986-01-26 03:03:21.230 ,0,1,0.,24.0,0.,24.0,0.,24.0,0.,24.0
1986-01-26 03:03:45.230 ,0,0,0.,24.0,0.,24.0,0.,24.0,0.,24.0
1986-01-26 03:04:09.230 ,1,1,0.,24.0,0.,24.0,0.,24.0,0.,24.0
1986-01-26 03:04:33.230 ,1,0,0.,24.0,0.,24.0,0.,24.0,0.,24.0
1986-01-26 03:04:57.230 ,2,1,0.,24.0,0.,24.0,0.,24.0,0.,24.0
1986-01-26 03:05:21.230 ,2,0,0.,24.0,0.,24.0,0.,24.0,0.,24.0
1986-01-26 03:05:45.230 ,3,1,0.,24.0,0.,24.0,0.,24.0,0.,24.0
1986-01-26 03:06:09.230 ,3,0,0.,24.0,0.,24.0,0.,24.0,0.,24.0
1986-01-26 03:06:33.230 ,4,1,0.,24.0,0.,24.0,0.,24.0,0.,24.0
1986-01-26 03:06:57.230 ,4,0,0.,24.0,0.,24.0,0.,24.0,0.,24.0
1986-01-26 03:07:21.230 ,5,1,0.,24.0,0.,24.0,0.,24.0,0.,24.0
1986-01-26 03:07:45.230 ,5,0,0.,24.0,0.,24.0,0.,24.0,0.,24.0
1986-01-26 03:08:09.230 ,6,1,0.,24.0,0.,24.0,0.,24.0,0.,24.0
1986-01-26 03:08:33.230 ,6,0,0.,24.0,0.,24.0,0.,24.0,0.,24.0
1986-01-26 03:08:57.230 ,7,1,0.,24.0,0.,24.0,0.,24.0,0.,24.0
1986-01-26 03:09:21.230 ,7,0,0.,24.0,0.,24.0,0.,24.0,0.,24.0
1986-01-26 03:09:45.230 ,7,1,0.,24.0,0.,24.0,0.,24.0,0.,24.0
1986-01-26 03:10:09.230 ,7,0,0.,24.0,0.,24.0,0.,24.0,0.,24.0
1986-01-26 03:10:33.230 ,6,1,0.,24.0,0.,24.0,0.,24.0,0.,24.0
1986-01-26 03:10:57.230 ,6,0,0.,24.0,0.,24.0,0.,24.0,0.,24.0
1986-01-26 03:11:21.230 ,5,1,0.,24.0,0.,24.0,0.,24.0,0.,24.0
1986-01-26 03:11:45.230 ,5,0,0.,24.0,0.,24.0,0.,24.0,0.,24.0
1986-01-26 03:12:09.230 ,4,1,0.,24.0,0.,24.0,0.,24.0,0.,24.0
1986-01-26 03:12:33.230 ,4,0,0.,24.0,0.,24.0,0.,24.0,0.,24.0
1986-01-26 03:12:57.230 ,3,1,0.,24.0,0.,24.0,0.,24.0,0.,24.0
1986-01-26 03:13:21.230 ,3,0,0.,24.0,0.,24.0,0.,24.0,0.,24.0
1986-01-26 03:13:45.230 ,2,1,0.,24.0,0.,24.0,0.,24.0,0.,24.0
1986-01-26 03:14:09.230 ,2,0,0.,24.0,0.,24.0,0.,24.0,0.,24.0
1986-01-26 03:14:33.230 ,1,1,0.,24.0,0.,24.0,0.,24.0,0.,24.0
1986-01-26 03:14:57.230 ,1,0,0.,24.0,0.,24.0,0.,24.0,0.,24.0
1986-01-26 03:15:21.230 ,0,1,0.,24.0,0.,24.0,0.,24.0,0.,24.0
1986-01-26 03:15:45.230 ,0,0,0.,24.0,0.,24.0,0.,24.0,0.,24.0
1986-01-26 03:16:09.230 ,0,1,0.,24.0,0.,24.0,0.,24.0,0.,24.0
1986-01-26 03:16:33.230 ,0,0,0.,24.0,0.,24.0,0.,24.0,0.,24.0
1986-01-26 03:16:57.230 ,1,1,0.,24.0,0.,24.0,0.,24.0,0.,24.0
1986-01-26 03:17:21.230 ,1,0,0.,24.0,0.,24.0,0.,24.0,0.,24.0
1986-01-26 03:17:45.230 ,2,1,0.,24.0,0.,24.0,0.,24.0,0.,24.0
1986-01-26 03:18:09.230 ,2,0,0.,24.0,0.,24.0,0.,24.0,0.,24.0
1986-01-26 03:18:33.230 ,3,1,0.,24.0,0.,24.0,0.,24.0,0.,24.0
1986-01-26 03:18:57.230 ,3,0,0.,24.0,0.,24.0,0.,24.0,0.,24.0
1986-01-26 03:19:21.230 ,4,1,0.,24.0,0.,24.0,0.,24.0,0.,24.0
1986-01-26 03:19:45.230 ,4,0,0.,24.0,0.,24.0,0.,24.0,0.,24.0
1986-01-26 03:20:09.230 ,5,1,0.,24.0,0.,24.0,0.,24.0,0.,24.0
1986-01-26 03:20:33.230 ,5,0,0.,24.0,0.,24.0,0.,24.0,0.,24.0
1986-01-26 03:20:57.230 ,6,1,0.,24.0,0.,24.0,0.,24.0,0.,24.0
1986-01-26 03:21:21.230 ,6,0,0.,24.0,0.,24.0,0.,24.0,0.,24.0
1986-01-26 03:21:45.230 ,7,1,0.,24.0,0.,24.0,0.,24.0,0.,24.0
1986-01-26 03:22:09.230 ,7,0,0.,24.0,0.,24.0,0.,24.0,0.,24.0
1986-01-26 03:22:33.230 ,7,1,0.,24.0,0.,24.0,0.,24.0,0.,24.0
1986-01-26 03:22:57.230 ,7,0,0.,24.0,0.,24.0,0.,24.0,0.,24.0
1986-01-26 03:23:21.230 ,6,1,0.,24.0,0.,24.0,0.,24.0,0.,24.0
1986-01-26 03:23:45.230 ,6,0,0.,24.0,0.,24.0,0.,24.0,0.,24.0
1986-01-26 03:24:09.230 ,5,1,0.,24.0,0.,24.0,0.,24.0,0.,24.0
1986-01-26 03:24:33.230 ,5,0,0.,24.0,0.,24.0,0.,24.0,0.,24.0
1986-01-26 03:24:57.230 ,4,1,0.,24.0,0.,24.0,0.,24.0,0.,24.0
1986-01-26 03:25:21.230 ,4,0,0.,24.0,0.,24.0,0.,24.0,0.,24.0
1986-01-26 03:25:45.230 ,3,1,0.,24.0,0.,24.0,0.,24.0,0.,24.0
1986-01-26 03:26:09.230 ,3,0,0.,24.0,0.,24.0,0.,24.0,0.,24.0
1986-01-26 03:26:33.230 ,2,1,0.,24.0,0.,24.0,0.,24.0,0.,24.0
1986-01-26 03:26:57.230 ,2,0,0.,24.0,0.,24.0,0.,24.0,0.,24.0
1986-01-26 03:27:21.230 ,1,1,0.,24.0,0.,24.0,0.,24.0,0.,24.0
1986-01-26 03:27:45.230 ,1,0,0.,24.0,0.,24.0,0.,24.0,0.,24.0
1986-01-26 03:28:09.230 ,0,1,0.,24.0,0.,24.0,0.,24.0,0.,24.0
1986-01-26 03:28:33.230 ,0,0,0.,24.0,0.,24.0,0.,24.0,0.,24.0
1986-01-26 03:28:57.230 ,0,1,0.,24.0,0.,24.0,0.,24.0,0.,24.0
1986-01-26 03:29:21.230 ,0,0,0.,24.0,0.,24.0,0.,24.0,0.,24.0
1986-01-26 03:29:45.230 ,1,1,0.,24.0,0.,24.0,0.,24.0,0.,24.0
1986-01-26 03:30:09.230 ,1,0,0.,24.0,0.,24.0,0.,24.0,0.,24.0
1986-01-26 03:30:33.230 ,2,1,0.,24.0,0.,24.0,0.,24.0,0.,24.0
1986-01-26 03:30:57.230 ,2,0,0.,24.0,0.,24.0,0.,24.0,0.,24.0
1986-01-26 03:31:21.230 ,3,1,0.,24.0,0.,24.0,0.,24.0,0.,24.0
1986-01-26 03:31:45.230 ,3,0,0.,24.0,0.,24.0,0.,24.0,0.,24.0
1986-01-26 03:32:09.230 ,4,1,0.,24.0,0.,24.0,0.,24.0,0.,24.0
1986-01-26 03:32:33.230 ,4,0,0.,24.0,0.,24.0,0.,24.0,0.,24.0
1986-01-26 03:32:57.230 ,5,1,0.,24.0,0.,24.0,0.,24.0,0.,24.0
1986-01-26 03:33:21.230 ,5,0,0.,24.0,0.,24.0,0.,24.0,0.,24.0
1986-01-26 03:33:45.230 ,6,1,0.,24.0,0.,24.0,0.,24.0,0.,24.0
1986-01-26 03:34:09.230 ,6,0,0.,24.0,0.,24.0,0.,24.0,0.,24.0
1986-01-26 03:34:33.230 ,7,1,0.,24.0,0.,24.0,0.,24.0,0.,24.0
1986-01-26 03:34:57.230 ,7,0,0.,24.0,0.,24.0,0.,24.0,0.,24.0
1986-01-26 03:35:21.230 ,7,1,0.,24.0,0.,24.0,0.,24.0,0.,24.0
1986-01-26 03:35:45.230 ,7,0,0.,24.0,0.,24.0,0.,24.0,0.,24.0
1986-01-26 03:36:09.230 ,6,1,0.,24.0,0.,24.0,0.,24.0,0.,24.0
1986-01-26 03:36:33.230 ,6,0,0.,24.0,0.,24.0,0.,24.0,0.,24.0
1986-01-26 03:36:57.230 ,5,1,0.,24.0,0.,24.0,0.,24.0,0.,24.0
1986-01-26 03:37:21.230 ,5,0,0.,24.0,0.,24.0,0.,24.0,0.,24.0
1986-01-26 03:37:45.230 ,4,1,0.,24.0,0.,24.0,0.,24.0,0.,24.0
1986-01-26 03:38:09.230 ,4,0,0.,24.0,0.,24.0,0.,24.0,0.,24.0
1986-01-26 03:38:33.230 ,3,1,0.,24.0,0.,24.0,0.,24.0,0.,24.0
1986-01-26 03:38:57.230 ,3,0,0.,24.0,0.,24.0,0.,24.0,0.,24.0
1986-01-26 03:39:21.230 ,2,1,0.,24.0,0.,24.0,0.,24.0,0.,24.0
1986-01-26 03:39:45.230 ,2,0,0.,24.0,0.,24.0,0.,24.0,0.,24.0
1986-01-26 03:40:09.230 ,1,1,0.,24.0,0.,24.0,0.,24.0,0.,24.0
1986-01-26 03:40:33.230 ,1,0,0.,24.0,0.,24.0,0.,24.0,0.,24.0
1986-01-26 03:40:57.230 ,0,1,0.,24.0,0.,24.0,0.,24.0,0.,24.0
1986-01-26 03:41:21.230 ,0,0,0.,24.0,0.,24.0,0.,24.0,0.,24.0
1986-01-26 03:41:45.230 ,0,1,0.,24.0,0.,24.0,0.,24.0,0.,24.0
1986-01-26 03:42:09.230 ,0,0,0.,24.0,0.,24.0,0.,24.0,0.,24.0
1986-01-26 03:42:33.230 ,1,1,0.,24.0,0.,24.0,0.,24.0,0.,24.0
1986-01-26 03:42:57.230 ,1,0,0.,24.0,0.,24.0,0.,24.0,0.,24.0
1986-01-26 03:43:21.230 ,2,1,0.,24.0,0.,24.0,0.,24.0,0.,24.0
1986-01-26 03:43:45.230 ,2,0,0.,24.0,0.,24.0,0.,24.0,0.,24.0
1986-01-26 03:44:09.230 ,3,1,0.,24.0,0.,24.0,0.,24.0,0.,24.0
1986-01-26 03:44:33.230 ,3,0,0.,24.0,0.,24.0,0.,24.0,0.,24.0
1986-01-26 03:44:57.230 ,4,1,0.,24.0,0.,24.0,0.,24.0,0.,24.0
1986-01-26 03:45:21.230 ,4,0,0.,24.0,0.,24.0,0.,24.0,0.,24.0
1986-01-26 03:45:45.230 ,5,1,0.,24.0,0.,24.0,0.,24.0,0.,24.0
1986-01-26 03:46:09.230 ,5,0,0.,24.0,0.,24.0,0.,24.0,0.,24.0
1986-01-26 03:46:33.230 ,6,1,0.,24.0,0.,24.0,0.,24.0,0.,24.0
1986-01-26 03:46:57.230 ,6,0,0.,24.0,0.,24.0,0.,24.0,0.,24.0
1986-01-26 03:47:21.230 ,7,1,0.,24.0,0.,24.0,0.,24.0,0.,24.0
1986-01-26 03:47:45.230 ,7,0,0.,24.0,0.,24.0,0.,24.0,0.,24.0
1986-01-26 03:48:09.230 ,7,1,0.,24.0,0.,24.0,0.,24.0,0.,24.0
1986-01-26 03:48:33.230 ,7,0,0.,24.0,0.,24.0,0.,24.0,0.,24.0
1986-01-26 03:48:57.230 ,6,1,0.,24.0,0.,24.0,0.,24.0,0.,24.0
1986-01-26 03:49:21.230 ,6,0,0.,24.0,0.,24.0,0.,24.0,0.,24.0
1986-01-26 03:49:45.230 ,5,1,0.,24.0,0.,24.0,0.,24.0,0.,24.0
1986-01-26 03:50:09.230 ,5,0,0.,24.0,0.,24.0,0.,24.0,0.,24.0
1986-01-26 03:50:33.230 ,4,1,0.,24.0,0.,24.0,0.,24.0,0.,24.0
1986-01-26 03:50:57.230 ,4,0,0.,24.0,0.,24.0,0.,24.0,0.,24.0
1986-01-26 03:51:21.230 ,3,1,0.,24.0,0.,24.0,0.,24.0,0.,24.0
1986-01-26 03:51:45.230 ,3,0,0.,24.0,0.,24.0,0.,24.0,0.,24.0
1986-01-26 03:52:09.230 ,2,1,0.,24.0,0.,24.0,0.,24.0,0.,24.0
1986-01-26 03:52:33.230 ,2,0,0.,24.0,0.,24.0,0.,24.0,0.,24.0
1986-01-26 03:52:57.230 ,1,1,0.,24.0,0.,24.0,0.,24.0,0.,24.0
1986-01-26 03:53:21.230 ,1,0,0.,24.0,0.,24.0,0.,24.0,0.,24.0
1986-01-26 03:53:45.230 ,0,1,0.,24.0,0.,24.0,0.,24.0,0.,24.0
1986-01-26 03:54:09.230 ,0,0,0.,24.0,0.,24.0,0.,24.0,0.,24.0
1986-01-26 03:54:33.230 ,0,1,0.,24.0,0.,24.0,0.,24.0,0.,24.0
1986-01-26 03:54:57.230 ,0,0,0.,24.0,0.,24.0,0.,24.0,0.,24.0
1986-01-26 03:55:21.230 ,1,1,0.,24.0,0.,24.0,0.,24.0,0.,24.0
1986-01-26 03:55:45.230 ,1,0,0.,24.0,0.,24.0,0.,24.0,0.,24.0
1986-01-26 03:56:09.230 ,2,1,0.,24.0,0.,24.0,0.,24.0,0.,24.0
1986-01-26 03:56:33.230 ,2,0,0.,24.0,0.,24.0,0.,24.0,0.,24.0
1986-01-26 03:56:57.230 ,3,1,0.,24.0,0.,24.0,0.,24.0,0.,24.0
1986-01-26 03:57:21.230 ,3,0,0.,24.0,0.,24.0,0.,24.0,0.,24.0
1986-01-26 03:57:45.230 ,4,1,0.,24.0,0.,24.0,0.,24.0,0.,24.0
1986-01-26 03:58:09.230 ,4,0,0.,24.0,0.,24.0,0.,24.0,0.,24.0
1986-01-26 03:58:33.230 ,5,1,0.,24.0,0.,24.0,0.,24.0,0.,24.0
1986-01-26 03:58:57.230 ,5,0,0.,24.0,0.,24.0,0.,24.0,0.,24.0
1986-01-26 03:59:21.230 ,6,1,0.,24.0,0.,24.0,0.,24.0,0.,24.0
1986-01-26 03:59:45.230 ,6,0,0.,24.0,0.,24.0,0.,24.0,0.,24.0
1986-01-26 04:00:09.230 ,7,1,0.,24.0,0.,24.0,0.,24.0,0.,24.0
1986-01-26 04:00:33.230 ,7,0,0.,24.0,0.,24.0,0.,24.0,0.,24.0
1986-01-26 04:00:57.230 ,7,1,0.,24.0,0.,24.0,0.,24.0,0.,24.0
1986-01-26 04:01:21.230 ,7,0,0.,24.0,0.,24.0,0.,24.0,0.,24.0
1986-01-26 04:01:45.230 ,6,1,0.,24.0,0.,24.0,0.,24.0,0.,24.0
1986-01-26 04:02:09.230 ,6,0,0.,24.0,0.,24.0,0.,24.0,0.,24.0
1986-01-26 04:02:33.230 ,5,1,0.,24.0,0.,24.0,0.,24.0,0.,24.0
1986-01-26 04:02:57.230 ,5,0,0.,24.0,0.,24.0,0.,24.0,0.,24.0
1986-01-26 04:03:21.230 ,4,1,0.,24.0,0.,24.0,0.,24.0,0.,24.0
1986-01-26 04:03:45.230 ,4,0,0.,24.0,0.,24.0,0.,24.0,0.,24.0
1986-01-26 04:04:09.230 ,3,1,0.,24.0,0.,24.0,0.,24.0,0.,24.0
1986-01-26 04:04:33.230 ,3,0,0.,24.0,0.,24.0,0.,24.0,0.,24.0
1986-01-26 04:04:57.230 ,2,1,0.,24.0,0.,24.0,0.,24.0,0.,24.0
1986-01-26 04:05:21.230 ,2,0,0.,24.0,0.,24.0,0.,24.0,0.,24.0
1986-01-26 04:05:45.230 ,1,1,0.,24.0,0.,24.0,0.,24.0,0.,24.0
1986-01-26 04:06:09.230 ,1,0,0.,24.0,0.,24.0,0.,24.0,0.,24.0
1986-01-26 04:06:33.230 ,0,1,0.,24.0,0.,24.0,0.,24.0,0.,24.0
1986-01-26 04:06:57.230 ,0,0,0.,24.0,0.,24.0,0.,24.0,0.,24.0
1986-01-26 04:07:21.230 ,0,1,0.,24.0,0.,24.0,0.,24.0,0.,24.0
1986-01-26 04:07:45.230 ,0,0,0.,24.0,0.,24.0,0.,24.0,0.,24.0
1986-01-26 04:08:09.230 ,1,1,0.,24.0,0.,24.0,0.,24.0,0.,24.0
1986-01-26 04:08:33.230 ,1,0,0.,24.0,0.,24.0,0.,24.0,0.,24.0
1986-01-26 04:08:57.230 ,2,1,0.,24.0,0.,24.0,0.,24.0,0.,24.0
1986-01-26 04:09:21.230 ,2,0,0.,24.0,0.,24.0,0.,24.0,0.,24.0
1986-01-26 04:09:45.230 ,3,1,0.,24.0,0.,24.0,0.,24.0,0.,24.0
1986-01-26 04:10:09.230 ,3,0,0.,24.0,0.,24.0,0.,24.0,0.,24.0
1986-01-26 04:10:33.230 ,4,1,0.,24.0,0.,24.0,0.,24.0,0.,24.0
1986-01-26 04:10:57.230 ,4,0,0.,24.0,0.,24.0,0.,24.0,0.,24.0
1986-01-26 04:11:21.230 ,5,1,0.,24.0,0.,24.0,0.,24.0,0.,24.0
1986-01-26 04:11:45.230 ,5,0,0.,24.0,0.,24.0,0.,24.0,0.,24.0
1986-01-26 04:12:09.230 ,6,1,0.,24.0,0.,24.0,0.,24.0,0.,24.0
1986-01-26 04:12:33.230 ,6,0,0.,24.0,0.,24.0,0.,24.0,0.,24.0
1986-01-26 04:12:57.230 ,7,1,0.,24.0,0.,24.0,0.,24.0,0.,24.0
1986-01-26 04:13:21.230 ,7,0,0.,24.0,0.,24.0,0.,24.0,0.,24.0
1986-01-26 04:13:45.230 ,7,1,0.,24.0,0.,24.0,0.,24.0,0.,24.0
1986-01-26 04:14:09.230 ,7,0,0.,24.0,0.,24.0,0.,24.0,0.,24.0
1986-01-26 04:14:33.230 ,6,1,0.,24.0,0.,24.0,0.,24.0,0.,24.0
1986-01-26 04:14:57.230 ,6,0,0.,24.0,0.,24.0,0.,24.0,0.,24.0
1986-01-26 04:15:21.230 ,5,1,0.,24.0,0.,24.0,0.,24.0,0.,24.0
1986-01-26 04:15:45.230 ,5,0,0.,24.0,0.,24.0,0.,24.0,0.,24.0
1986-01-26 04:16:09.230 ,4,1,0.,24.0,0.,24.0,0.,24.0,0.,24.0
1986-01-26 04:16:33.230 ,4,0,0.,24.0,0.,24.0,0.,24.0,0.,24.0
1986-01-26 04:16:57.230 ,3,1,0.,24.0,0.,24.0,0.,24.0,0.,24.0
1986-01-26 04:17:21.230 ,3,0,0.,24.0,0.,24.0,0.,24.0,0.,24.0
1986-01-26 04:17:45.230 ,2,1,0.,24.0,0.,24.0,0.,24.0,0.,24.0
1986-01-26 04:18:09.230 ,2,0,0.,24.0,0.,24.0,0.,24.0,0.,24.0
1986-01-26 04:18:33.230 ,1,1,0.,24.0,0.,24.0,0.,24.0,0.,24.0
1986-01-26 04:18:57.230 ,1,0,0.,24.0,0.,24.0,0.,24.0,0.,24.0
1986-01-26 04:19:21.230 ,0,1,0.,24.0,0.,24.0,0.,24.0,0.,24.0
1986-01-26 04:19:45.230 ,0,0,0.,24.0,0.,24.0,0.,24.0,0.,24.0
1986-01-26 04:20:09.230 ,0,1,0.,24.0,0.,24.0,0.,24.0,0.,24.0
1986-01-26 04:20:33.230 ,0,0,0.,24.0,0.,24.0,0.,24.0,0.,24.0
1986-01-26 04:20:57.230 ,1,1,0.,24.0,0.,24.0,0.,24.0,0.,24.0
1986-01-26 04:21:21.230 ,1,0,0.,24.0,0.,24.0,0.,24.0,0.,24.0
1986-01-26 04:21:45.230 ,2,1,0.,24.0,0.,24.0,0.,24.0,0.,24.0
1986-01-26 04:22:09.230 ,2,0,0.,24.0,0.,24.0,0.,24.0,0.,24.0
1986-01-26 04:22:33.220 ,3,1,0.,24.0,0.,24.0,0.,24.0,0.,24.0
1986-01-26 04:22:57.220 ,3,0,0.,24.0,0.,24.0,0.,24.0,0.,24.0
1986-01-26 04:23:21.220 ,4,1,0.,24.0,0.,24.0,0.,24.0,0.,24.0
1986-01-26 04:23:45.220 ,4,0,0.,24.0,0.,24.0,0.,24.0,0.,24.0
1986-01-26 04:24:09.220 ,5,1,0.,24.0,0.,24.0,0.,24.0,0.,24.0
1986-01-26 04:24:33.220 ,5,0,0.,24.0,0.,24.0,0.,24.0,0.,24.0
1986-01-26 04:24:57.220 ,6,1,0.,24.0,0.,24.0,0.,24.0,0.,24.0
1986-01-26 04:25:21.220 ,6,0,0.,24.0,0.,24.0,0.,24.0,0.,24.0
1986-01-26 04:25:45.220 ,7,1,0.,24.0,0.,24.0,0.,24.0,0.,24.0
1986-01-26 04:26:09.220 ,7,0,0.,24.0,0.,24.0,0.,24.0,0.,24.0
1986-01-26 04:26:33.220 ,7,1,0.,24.0,0.,24.0,0.,24.0,0.,24.0
1986-01-26 04:26:57.220 ,7,0,0.,24.0,0.,24.0,0.,24.0,0.,24.0
1986-01-26 04:27:21.220 ,6,1,0.,24.0,0.,24.0,0.,24.0,0.,24.0
1986-01-26 04:27:45.220 ,6,0,0.,24.0,0.,24.0,0.,24.0,0.,24.0
1986-01-26 04:28:09.220 ,5,1,0.,24.0,0.,24.0,0.,24.0,0.,24.0
1986-01-26 04:28:33.220 ,5,0,0.,24.0,0.,24.0,0.,24.0,0.,24.0
1986-01-26 04:28:57.220 ,4,1,0.,24.0,0.,24.0,0.,24.0,0.,24.0
1986-01-26 04:29:21.220 ,4,0,0.,24.0,0.,24.0,0.,24.0,0.,24.0
1986-01-26 04:29:45.220 ,3,1,0.,24.0,0.,24.0,0.,24.0,0.,24.0
1986-01-26 04:30:09.220 ,3,0,0.,24.0,0.,24.0,0.,24.0,0.,24.0
1986-01-26 04:30:33.220 ,2,1,0.,24.0,0.,24.0,0.,24.0,0.,24.0
1986-01-26 04:30:57.220 ,2,0,0.,24.0,0.,24.0,0.,24.0,0.,24.0
1986-01-26 04:31:21.220 ,1,1,0.,24.0,0.,24.0,0.,24.0,0.,24.0
1986-01-26 04:31:45.220 ,1,0,0.,24.0,0.,24.0,0.,24.0,0.,24.0
1986-01-26 04:32:09.220 ,0,1,0.,24.0,0.,24.0,0.,24.0,0.,24.0
1986-01-26 04:32:33.220 ,0,0,0.,24.0,0.,24.0,0.,24.0,0.,24.0
1986-01-26 04:32:57.220 ,0,1,0.,24.0,0.,24.0,0.,24.0,0.,24.0
1986-01-26 04:33:21.220 ,0,0,0.,24.0,0.,24.0,0.,24.0,0.,24.0
1986-01-26 04:33:45.220 ,1,1,0.,24.0,0.,24.0,0.,24.0,0.,24.0
1986-01-26 04:34:09.220 ,1,0,0.,24.0,0.,24.0,0.,24.0,0.,24.0
1986-01-26 04:34:33.220 ,2,1,0.,24.0,0.,24.0,0.,24.0,0.,24.0
1986-01-26 04:34:57.220 ,2,0,0.,24.0,0.,24.0,0.,24.0,0.,24.0
1986-01-26 04:35:21.220 ,3,1,0.,24.0,0.,24.0,0.,24.0,0.,24.0
1986-01-26 04:35:45.220 ,3,0,0.,24.0,0.,24.0,0.,24.0,0.,24.0
1986-01-26 04:36:09.220 ,4,1,0.,24.0,0.,24.0,0.,24.0,0.,24.0
1986-01-26 04:36:33.220 ,4,0,0.,24.0,0.,24.0,0.,24.0,0.,24.0
1986-01-26 04:36:57.220 ,5,1,0.,24.0,0.,24.0,0.,24.0,0.,24.0
1986-01-26 04:37:21.220 ,5,0,0.,24.0,0.,24.0,0.,24.0,0.,24.0
1986-01-26 04:37:45.220 ,6,1,0.,24.0,0.,24.0,0.,24.0,0.,24.0
1986-01-26 04:38:09.220 ,6,0,0.,24.0,0.,24.0,0.,24.0,0.,24.0
1986-01-26 04:38:33.220 ,7,1,0.,24.0,0.,24.0,0.,24.0,0.,24.0
1986-01-26 04:38:57.220 ,7,0,0.,24.0,0.,24.0,0.,24.0,0.,24.0
1986-01-26 04:39:21.220 ,7,1,0.,24.0,0.,24.0,0.,24.0,0.,24.0
1986-01-26 04:39:45.220 ,7,0,0.,24.0,0.,24.0,0.,24.0,0.,24.0
1986-01-26 04:40:09.220 ,6,1,0.,24.0,0.,24.0,0.,24.0,0.,24.0
1986-01-26 04:40:33.220 ,6,0,0.,24.0,0.,24.0,0.,24.0,0.,24.0
1986-01-26 04:40:57.220 ,5,1,0.,24.0,0.,24.0,0.,24.0,0.,24.0
1986-01-26 04:41:21.220 ,5,0,0.,24.0,0.,24.0,0.,24.0,0.,24.0
1986-01-26 04:41:45.220 ,4,1,0.,24.0,0.,24.0,0.,24.0,0.,24.0
1986-01-26 04:42:09.220 ,4,0,0.,24.0,0.,24.0,0.,24.0,0.,24.0
1986-01-26 04:42:33.220 ,3,1,0.,24.0,0.,24.0,0.,24.0,0.,24.0
1986-01-26 04:42:57.220 ,3,0,0.,24.0,0.,24.0,0.,24.0,0.,24.0
1986-01-26 04:43:21.220 ,2,1,0.,24.0,0.,24.0,0.,24.0,0.,24.0
1986-01-26 04:43:45.220 ,2,0,0.,24.0,0.,24.0,0.,24.0,0.,24.0
1986-01-26 04:44:09.220 ,1,1,0.,24.0,0.,24.0,0.,24.0,0.,24.0
1986-01-26 04:44:33.220 ,1,0,0.,24.0,0.,24.0,0.,24.0,0.,24.0
1986-01-26 04:44:57.220 ,0,1,0.,24.0,0.,24.0,0.,24.0,0.,24.0
1986-01-26 04:45:21.220 ,0,0,0.,24.0,0.,24.0,0.,24.0,0.,24.0
1986-01-26 04:45:45.220 ,0,1,0.,24.0,0.,24.0,0.,24.0,0.,24.0
1986-01-26 04:46:09.220 ,0,0,0.,24.0,0.,24.0,0.,24.0,0.,24.0
1986-01-26 04:46:33.220 ,1,1,0.,24.0,0.,24.0,0.,24.0,0.,24.0
1986-01-26 04:46:57.220 ,1,0,0.,24.0,0.,24.0,0.,24.0,0.,24.0
1986-01-26 04:47:21.220 ,2,1,0.,24.0,0.,24.0,0.,24.0,0.,24.0
1986-01-26 04:47:45.220 ,2,0,0.,24.0,0.,24.0,0.,24.0,0.,24.0
1986-01-26 04:48:09.220 ,3,1,0.,24.0,0.,24.0,0.,24.0,0.,24.0
1986-01-26 04:48:33.220 ,3,0,0.,24.0,0.,24.0,0.,24.0,0.,24.0
1986-01-26 04:48:57.220 ,4,1,0.,24.0,0.,24.0,0.,24.0,0.,24.0
1986-01-26 04:49:21.220 ,4,0,0.,24.0,0.,24.0,0.,24.0,0.,24.0
1986-01-26 04:49:45.220 ,5,1,0.,24.0,0.,24.0,0.,24.0,0.,24.0
1986-01-26 04:50:09.220 ,5,0,0.,24.0,0.,24.0,0.,24.0,0.,24.0
1986-01-26 04:50:33.220 ,6,1,0.,24.0,0.,24.0,0.,24.0,0.,24.0
1986-01-26 04:50:57.220 ,6,0,0.,24.0,0.,24.0,0.,24.0,0.,24.0
1986-01-26 04:51:21.220 ,7,1,0.,24.0,0.,24.0,0.,24.0,0.,24.0
1986-01-26 04:51:45.220 ,7,0,0.,24.0,0.,24.0,0.,24.0,0.,24.0
1986-01-26 04:52:09.220 ,7,1,0.,24.0,0.,24.0,0.,24.0,0.,24.0
1986-01-26 04:52:33.220 ,7,0,0.,24.0,0.,24.0,0.,24.0,0.,24.0
1986-01-26 04:52:57.220 ,6,1,0.,24.0,0.,24.0,0.,24.0,0.,24.0
1986-01-26 04:53:21.220 ,6,0,0.,24.0,0.,24.0,0.,24.0,0.,24.0
1986-01-26 04:53:45.220 ,5,1,0.,24.0,0.,24.0,0.,24.0,0.,24.0
1986-01-26 04:54:09.220 ,5,0,0.,24.0,0.,24.0,0.,24.0,0.,24.0
1986-01-26 04:54:33.220 ,4,1,0.,24.0,0.,24.0,0.,24.0,0.,24.0
1986-01-26 04:54:57.220 ,4,0,0.,24.0,0.,24.0,0.,24.0,0.,24.0
1986-01-26 04:55:21.220 ,3,1,0.,24.0,0.,24.0,0.,24.0,0.,24.0
1986-01-26 04:55:45.220 ,3,0,0.,24.0,0.,24.0,0.,24.0,0.,24.0
1986-01-26 04:56:09.220 ,2,1,0.,24.0,0.,24.0,0.,24.0,0.,24.0
1986-01-26 04:56:33.220 ,2,0,0.,24.0,0.,24.0,0.,24.0,0.,24.0
1986-01-26 04:56:57.220 ,1,1,0.,24.0,0.,24.0,0.,24.0,0.,24.0
1986-01-26 04:57:21.220 ,1,0,0.,24.0,0.,24.0,0.,24.0,0.,24.0
1986-01-26 04:57:45.220 ,0,1,0.,24.0,0.,24.0,0.,24.0,0.,24.0
1986-01-26 04:58:09.220 ,0,0,0.,24.0,0.,24.0,0.,24.0,0.,24.0
1986-01-26 04:58:33.220 ,0,1,0.,24.0,0.,24.0,0.,24.0,0.,24.0
1986-01-26 04:58:57.220 ,0,0,0.,24.0,0.,24.0,0.,24.0,0.,24.0
1986-01-26 04:59:21.220 ,1,1,0.,24.0,0.,24.0,0.,24.0,0.,24.0
1986-01-26 04:59:45.220 ,1,0,0.,24.0,0.,24.0,0.,24.0,0.,24.0
1986-01-26 05:00:09.220 ,2,1,0.,24.0,0.,24.0,0.,24.0,0.,24.0
1986-01-26 05:00:33.220 ,2,0,0.,24.0,0.,24.0,0.,24.0,0.,24.0
1986-01-26 05:00:57.220 ,3,1,0.,24.0,0.,24.0,0.,24.0,0.,24.0
1986-01-26 05:01:21.220 ,3,0,0.,24.0,0.,24.0,0.,24.0,0.,24.0
1986-01-26 05:01:45.220 ,4,1,0.,24.0,0.,24.0,0.,24.0,0.,24.0
1986-01-26 05:02:09.220 ,4,0,0.,24.0,0.,24.0,0.,24.0,0.,24.0
1986-01-26 05:02:33.220 ,5,1,0.,24.0,0.,24.0,0.,24.0,0.,24.0
1986-01-26 05:02:57.220 ,5,0,0.,24.0,0.,24.0,0.,24.0,0.,24.0
1986-01-26 05:03:21.220 ,6,1,0.,24.0,0.,24.0,0.,24.0,0.,24.0
1986-01-26 05:03:45.220 ,6,0,0.,24.0,0.,24.0,0.,24.0,0.,24.0
1986-01-26 05:04:09.220 ,7,1,0.,24.0,0.,24.0,0.,24.0,0.,24.0
1986-01-26 05:04:33.220 ,7,0,0.,24.0,0.,24.0,0.,24.0,0.,24.0
1986-01-26 05:04:57.220 ,7,1,0.,24.0,0.,24.0,0.,24.0,0.,24.0
1986-01-26 05:05:21.220 ,7,0,0.,24.0,0.,24.0,0.,24.0,0.,24.0
1986-01-26 05:05:45.220 ,6,1,0.,24.0,0.,24.0,0.,24.0,0.,24.0
1986-01-26 05:06:09.220 ,6,0,0.,24.0,0.,24.0,0.,24.0,0.,24.0
1986-01-26 05:06:33.220 ,5,1,0.,24.0,0.,24.0,0.,24.0,0.,24.0
1986-01-26 05:06:57.220 ,5,0,0.,24.0,0.,24.0,0.,24.0,0.,24.0
1986-01-26 05:07:21.220 ,4,1,0.,24.0,0.,24.0,0.,24.0,0.,24.0
1986-01-26 05:07:45.220 ,4,0,0.,24.0,0.,24.0,0.,24.0,0.,24.0
1986-01-26 05:08:09.220 ,3,1,0.,24.0,0.,24.0,0.,24.0,0.,24.0
1986-01-26 05:08:33.220 ,3,0,0.,24.0,0.,24.0,0.,24.0,0.,24.0
1986-01-26 05:08:57.220 ,2,1,0.,24.0,0.,24.0,0.,24.0,0.,24.0
1986-01-26 05:09:21.220 ,2,0,0.,24.0,0.,24.0,0.,24.0,0.,24.0
1986-01-26 05:09:45.220 ,1,1,0.,24.0,0.,24.0,0.,24.0,0.,24.0
1986-01-26 05:10:09.220 ,1,0,0.,24.0,0.,24.0,0.,24.0,0.,24.0
1986-01-26 05:10:33.220 ,0,1,0.,24.0,0.,24.0,0.,24.0,0.,24.0
1986-01-26 05:10:57.220 ,0,0,0.,24.0,0.,24.0,0.,24.0,0.,24.0
1986-01-26 05:11:21.220 ,0,1,0.,24.0,0.,24.0,0.,24.0,0.,24.0
1986-01-26 05:11:45.220 ,0,0,0.,24.0,0.,24.0,0.,24.0,0.,24.0
1986-01-26 05:12:09.220 ,1,1,0.,24.0,0.,24.0,0.,24.0,0.,24.0
1986-01-26 05:12:33.220 ,1,0,0.,24.0,0.,24.0,0.,24.0,0.,24.0
1986-01-26 05:12:57.220 ,2,1,0.,24.0,0.,24.0,0.,24.0,0.,24.0
1986-01-26 05:13:21.220 ,2,0,0.,24.0,0.,24.0,0.,24.0,0.,24.0
1986-01-26 05:13:45.220 ,3,1,0.,24.0,0.,24.0,0.,24.0,0.,24.0
1986-01-26 05:14:09.220 ,3,0,0.,24.0,0.,24.0,0.,24.0,0.,24.0
1986-01-26 05:14:33.220 ,4,1,0.,24.0,0.,24.0,0.,24.0,0.,24.0
1986-01-26 05:14:57.220 ,4,0,0.,24.0,0.,24.0,0.,24.0,0.,24.0
1986-01-26 05:15:21.220 ,5,1,0.,24.0,0.,24.0,0.,24.0,0.,24.0
1986-01-26 05:15:45.220 ,5,0,0.,24.0,0.,24.0,0.,24.0,0.,24.0
1986-01-26 05:16:09.220 ,6,1,0.,24.0,0.,24.0,0.,24.0,0.,24.0
1986-01-26 05:16:33.220 ,6,0,0.,24.0,0.,24.0,0.,24.0,0.,24.0
1986-01-26 05:16:57.220 ,7,1,0.,24.0,0.,24.0,0.,24.0,0.,24.0
1986-01-26 05:17:21.220 ,7,0,0.,24.0,0.,24.0,0.,24.0,0.,24.0
1986-01-26 05:17:45.220 ,7,1,0.,24.0,0.,24.0,0.,24.0,0.,24.0
1986-01-26 05:18:09.220 ,7,0,0.,24.0,0.,24.0,0.,24.0,0.,24.0
1986-01-26 05:18:33.220 ,6,1,0.,24.0,0.,24.0,0.,24.0,0.,24.0
1986-01-26 05:18:57.220 ,6,0,0.,24.0,0.,24.0,0.,24.0,0.,24.0
1986-01-26 05:19:21.220 ,5,1,0.,24.0,0.,24.0,0.,24.0,0.,24.0
1986-01-26 05:19:45.220 ,5,0,0.,24.0,0.,24.0,0.,24.0,0.,24.0
1986-01-26 05:20:09.220 ,4,1,0.,24.0,0.,24.0,0.,24.0,0.,24.0
1986-01-26 05:20:33.220 ,4,0,0.,24.0,0.,24.0,0.,24.0,0.,24.0
1986-01-26 05:20:57.220 ,3,1,0.,24.0,0.,24.0,0.,24.0,0.,24.0
1986-01-26 05:21:21.220 ,3,0,0.,24.0,0.,24.0,0.,24.0,0.,24.0
1986-01-26 05:21:45.220 ,2,1,0.,24.0,0.,24.0,0.,24.0,0.,24.0
1986-01-26 05:22:09.220 ,2,0,0.,24.0,0.,24.0,0.,24.0,0.,24.0
1986-01-26 05:22:33.220 ,1,1,0.,24.0,0.,24.0,0.,24.0,0.,24.0
1986-01-26 05:22:57.220 ,1,0,0.,24.0,0.,24.0,0.,24.0,0.,24.0
1986-01-26 05:23:21.220 ,0,1,0.,24.0,0.,24.0,0.,24.0,0.,24.0
1986-01-26 05:23:45.220 ,0,0,0.,24.0,0.,24.0,0.,24.0,0.,24.0
1986-01-26 05:24:09.220 ,0,1,0.,24.0,0.,24.0,0.,24.0,0.,24.0
1986-01-26 05:24:33.220 ,0,0,0.,24.0,0.,24.0,0.,24.0,0.,24.0
1986-01-26 05:24:57.220 ,1,1,0.,24.0,0.,24.0,0.,24.0,0.,24.0
1986-01-26 05:25:21.220 ,1,0,0.,24.0,0.,24.0,0.,24.0,0.,24.0
1986-01-26 05:25:45.220 ,2,1,0.,24.0,0.,24.0,0.,24.0,0.,24.0
1986-01-26 05:26:09.220 ,2,0,0.,24.0,0.,24.0,0.,24.0,0.,24.0
1986-01-26 05:26:33.220 ,3,1,0.,24.0,0.,24.0,0.,24.0,0.,24.0
1986-01-26 05:26:57.220 ,3,0,0.,24.0,0.,24.0,0.,24.0,0.,24.0
1986-01-26 05:27:21.220 ,4,1,0.,24.0,0.,24.0,0.,24.0,0.,24.0
1986-01-26 05:27:45.220 ,4,0,0.,24.0,0.,24.0,0.,24.0,0.,24.0
1986-01-26 05:28:09.220 ,5,1,0.,24.0,0.,24.0,0.,24.0,0.,24.0
1986-01-26 05:28:33.220 ,5,0,0.,24.0,0.,24.0,0.,24.0,0.,24.0
1986-01-26 05:28:57.220 ,6,1,0.,24.0,0.,24.0,0.,24.0,0.,24.0
1986-01-26 05:29:21.220 ,6,0,0.,24.0,0.,24.0,0.,24.0,0.,24.0
1986-01-26 05:29:45.220 ,7,1,0.,24.0,0.,24.0,0.,24.0,0.,24.0
1986-01-26 05:30:09.220 ,7,0,0.,24.0,0.,24.0,0.,24.0,0.,24.0
1986-01-26 05:30:33.220 ,7,1,0.,24.0,0.,24.0,0.,24.0,0.,24.0
1986-01-26 05:30:57.220 ,7,0,0.,24.0,0.,24.0,0.,24.0,0.,24.0
1986-01-26 05:31:21.220 ,6,1,0.,24.0,0.,24.0,0.,24.0,0.,24.0
1986-01-26 05:31:45.220 ,6,0,0.,24.0,0.,24.0,0.,24.0,0.,24.0
1986-01-26 05:32:09.220 ,5,1,0.,24.0,0.,24.0,0.,24.0,0.,24.0
1986-01-26 05:32:33.220 ,5,0,0.,24.0,0.,24.0,0.,24.0,0.,24.0
1986-01-26 05:32:57.220 ,4,1,0.,24.0,0.,24.0,0.,24.0,0.,24.0
1986-01-26 05:33:21.220 ,4,0,0.,24.0,0.,24.0,0.,24.0,0.,24.0
1986-01-26 05:33:45.220 ,3,1,0.,24.0,0.,24.0,0.,24.0,0.,24.0
1986-01-26 05:34:09.220 ,3,0,0.,24.0,0.,24.0,0.,24.0,0.,24.0
1986-01-26 05:34:33.220 ,2,1,0.,24.0,0.,24.0,0.,24.0,0.,24.0